Location: Cluny
(50.9333°N, 112.8167°W)
Time: 11:04:48
(UTC-06:00)

Amateur Radio Satellites - All Passes

Search period start: 04 May 2015 10:34
Search period end: 05 May 2015 10:34
Location: Cluny, 50.9333°N, 112.8167°W

Satellite Date Start Highest point End Downlink Frequencies (MHz)
Time Altitude Azimuth
SEEDS 04 May 10:35:57 10:40:13 78° 103° (ESE) 10:44:25 437.485
DELFI C3 04 May 10:36:56 10:40:05 22° 92° (E) 10:43:17 145.870
YUBILEINY 04 May 10:45:33 10:54:13 66° 94° (E) 11:02:55 435.215
ANTELSAT 04 May 10:47:37 10:52:13 60° 71° (ENE) 10:56:54 437.575/2403.000
CINEMA 3 04 May 10:51:19 10:56:23 68° 102° (ESE) 11:01:23 145.822/145.860
BUGSAT 1 04 May 10:53:33 10:56:49 25° 63° (ENE) 11:00:11 437.445
BRITE-PL 04 May 10:54:20 10:59:14 39° 293° (WNW) 11:04:21 437.365/2234.400
UKube-1 04 May 11:00:42 11:03:29 17° 89° (E) 11:06:24 .
CANX-2 04 May 11:01:14 11:05:22 47° 290° (WNW) 11:09:26 2200.000
QB50P2 04 May 11:01:50 11:05:50 42° 68° (ENE) 11:09:54 145.880/145.840
AISAT 04 May 11:04:38 11:05:33 11° 84° (E) 11:06:40 437.250
SO-50 04 May 11:05:27 11:10:11 89° 128° (SE) 11:15:06 436.795
HO-68 04 May 11:07:58 11:15:10 74° 292° (WNW) 11:22:17 435.675
Cosmos 2504 04 May 11:08:14 11:09:23 10° 68° (ENE) 11:11:09 435.465 / 435.565
CUTE 1.7 + AOD 2 04 May 11:08:52 11:12:58 43° 290° (WNW) 11:16:59 437.475
BEESAT 3 04 May 11:09:10 11:10:57 12° 248° (WSW) 11:12:34 437.485
FUNcube-1 04 May 11:10:36 11:14:55 38° 96° (E) 11:19:09 145.935
NANOSAT C BR1 04 May 11:12:47 11:16:53 51° 70° (ENE) 11:21:03 145.865
ISS 04 May 11:13:46 11:17:00 70° 163° (SSE) 11:20:16 145.825
Oscar 11 04 May 11:16:25 11:20:46 71° 102° (ESE) 11:25:05 145.826/435.025
DOVE 4 04 May 11:19:09 11:24:09 45° 292° (WNW) 11:29:12 437.250
POPSAT HIP 1 04 May 11:20:30 11:24:40 61° 72° (ENE) 11:28:55 437.405
CUBEBUG 2 04 May 11:21:48 11:26:37 72° 102° (ESE) 11:31:21 437.445
BEESAT 2 04 May 11:23:56 11:25:08 11° 249° (WSW) 11:26:07 435.950
AIST 1 04 May 11:24:57 11:29:16 83° 79° (E) 11:33:34
UWE-3 04 May 11:27:13 11:31:56 67° 102° (ESE) 11:36:33 435.000/436.395/437.385
GOMX 1 04 May 11:30:12 11:34:46 30° 297° (WNW) 11:39:24 467.674
COMPASS 1 04 May 11:30:47 11:34:42 38° 292° (WNW) 11:38:33 437.405
TIGRISAT 04 May 11:33:02 11:37:37 57° 260° (W) 11:42:18 435.000
Cosmos 2491 04 May 11:35:46 11:43:11 30° 279° (W) 11:50:22 435.465 / 435.565
ZACube-1 04 May 11:39:58 11:44:36 72° 103° (ESE) 11:49:09 437.345
RS-15 04 May 11:40:12 11:42:57 12° 93° (E) 11:46:41 29.354- 29.394
UNISAT 6 04 May 11:42:01 11:46:31 47° 262° (W) 11:51:06 437.425
DUCHIFAT 1 04 May 11:43:27 11:47:40 83° 254° (WSW) 11:51:58 145.980
AIST 2 04 May 11:45:45 11:48:48 19° 245° (WSW) 11:51:44 435.215
PCSat 04 May 11:49:43 11:52:41 15° 359° (N) 11:55:38 145.827
HUMSAT D 04 May 11:51:33 11:55:46 47° 99° (E) 11:59:55 437.325/437.525
CUBEBUG 1 04 May 11:54:11 11:56:58 17° 88° (E) 11:59:51 437.445
POLYITAN 1 04 May 11:54:52 11:59:05 62° 259° (WSW) 12:03:22 437.675
AAUSAT CUBESAT 2 04 May 12:05:32 12:08:47 22° 297° (WNW) 12:11:56 437.432
DX 1 04 May 12:06:44 12:11:08 74° 103° (ESE) 12:15:31 434.975-435.025
QB50P1 04 May 12:07:47 12:11:53 47° 261° (W) 12:16:02 145.935-145.965
DELFI C3 04 May 12:11:36 12:15:25 41° 291° (WNW) 12:19:12 145.870
SEEDS 04 May 12:12:59 12:15:31 15° 301° (WNW) 12:17:54 437.485
50 SAT 04 May 12:14:03 12:17:59 49° 100° (E) 12:21:52 437.505
ESTCUBE 1 04 May 12:15:41 12:19:35 29° 94° (E) 12:23:33 437.505/2401.250
VELOX 1 04 May 12:16:43 12:21:02 47° 99° (E) 12:25:22 145.980
ANTELSAT 04 May 12:25:53 12:29:25 21° 271° (W) 12:32:54 437.575/2403.000
BUGSAT 1 04 May 12:28:20 12:32:09 39° 262° (W) 12:36:00 437.445
CINEMA 3 04 May 12:29:15 12:33:09 22° 300° (WNW) 12:36:57 145.822/145.860
Oscar 19 04 May 12:33:58 12:37:47 22° 57° (ENE) 12:41:43 437.125/150
UKube-1 04 May 12:35:47 12:40:06 64° 289° (WNW) 12:44:24 .
SPROUT 04 May 12:36:53 12:38:59 14° 86° (E) 12:41:17 437.525
QB50P2 04 May 12:38:23 12:41:55 24° 268° (W) 12:45:25 145.880/145.840
AISAT 04 May 12:38:29 12:42:59 79° 102° (ESE) 12:47:29 437.250
YUBILEINY 04 May 12:43:42 12:51:46 37° 298° (WNW) 12:59:42 435.215
FUNcube-1 04 May 12:47:05 12:51:09 31° 295° (WNW) 12:55:07 145.935
SO-50 04 May 12:47:15 12:51:22 27° 334° (NNW) 12:55:32 436.795
NANOSAT C BR1 04 May 12:49:52 12:53:03 20° 270° (W) 12:56:10 145.865
ISS 04 May 12:50:07 12:53:23 76° 1° (N) 12:56:40 145.825
Cosmos 2504 04 May 12:52:42 13:00:57 48° 89° (E) 13:08:56 435.465 / 435.565
Oscar 11 04 May 12:53:36 12:56:30 17° 301° (WNW) 12:59:16 145.826/435.025
HO-68 04 May 12:56:42 13:01:53 21° 313° (NW) 13:06:53 435.675
POPSAT HIP 1 04 May 12:58:10 13:01:01 17° 271° (W) 13:03:46 437.405
CUBEBUG 2 04 May 12:59:22 13:02:50 20° 301° (WNW) 13:06:10 437.445
TISAT 1 04 May 13:03:29 13:06:28 19° 90° (E) 13:09:34 437.305
UWE-3 04 May 13:04:34 13:08:02 20° 300° (WNW) 13:11:22 435.000/436.395/437.385
AIST 1 04 May 13:04:35 13:06:19 12° 277° (W) 13:07:53
ZACube-1 04 May 13:17:15 13:20:28 19° 301° (WNW) 13:23:34 437.345
Gurwin Techsat 1B 04 May 13:19:22 13:22:42 18° 54° (NE) 13:26:11 435.225
DUCHIFAT 1 04 May 13:23:30 13:24:18 10° 276° (W) 13:24:53 145.980
HUMSAT D 04 May 13:27:47 13:31:16 23° 297° (WNW) 13:34:39 437.325/437.525
CUBEBUG 1 04 May 13:29:26 13:33:49 66° 288° (WNW) 13:38:11 437.445
ITAMSAT 1 04 May 13:30:31 13:34:23 22° 58° (ENE) 13:38:22 435.822/435.867
PCSat 04 May 13:34:05 13:38:09 21° 24° (NNE) 13:42:17 145.827
JAS-2 04 May 13:40:05 13:41:39 11° 41° (NE) 13:43:29 435.910
RS-15 04 May 13:42:23 13:52:39 52° 116° (ESE) 14:03:18 29.354- 29.394
DX 1 04 May 13:44:02 13:46:56 17° 302° (WNW) 13:49:43 434.975-435.025
AO-7 04 May 13:45:55 13:51:12 20° 37° (NE) 13:56:43 29.400- 29.500
50 SAT 04 May 13:49:27 13:52:29 20° 298° (WNW) 13:55:24 437.505
ESTCUBE 1 04 May 13:52:23 13:56:34 38° 293° (WNW) 14:00:44 437.505/2401.250
VELOX 1 04 May 13:53:43 13:57:23 25° 298° (WNW) 14:00:58 145.980
SPROUT 04 May 14:11:21 14:15:43 80° 286° (WNW) 14:20:03 437.525
Oscar 19 04 May 14:11:29 14:16:39 74° 256° (WSW) 14:21:54 437.125/150
UKube-1 04 May 14:14:25 14:15:29 11° 307° (NW) 14:16:21 .
AISAT 04 May 14:16:11 14:19:05 17° 302° (WNW) 14:21:52 437.250
VERMONT LUNAR 04 May 14:25:03 14:26:06 11° 166° (SSE) 14:27:12 437.305
ISS 04 May 14:26:30 14:29:44 58° 201° (SSW) 14:32:56 145.825
SO-50 04 May 14:30:17 14:33:27 17° 357° (N) 14:36:38 436.795
ITUPSAT 1 04 May 14:37:41 14:41:47 28° 93° (E) 14:45:56 437.325
TISAT 1 04 May 14:38:26 14:42:38 56° 290° (WNW) 14:46:49 437.305
Cosmos 2504 04 May 14:45:54 14:54:27 51° 290° (WNW) 15:02:35 435.465 / 435.565
YUBILEINY 04 May 14:50:04 14:52:11 11° 327° (NNW) 14:53:54 435.215
Gurwin Techsat 1B 04 May 14:56:41 15:02:00 85° 76° (ENE) 15:07:22 435.225
BEESAT 04 May 15:01:45 15:06:22 46° 99° (E) 15:10:57 436.000
SWISSCUBE 04 May 15:05:57 15:10:39 54° 101° (E) 15:15:19 437.505
CUBEBUG 1 04 May 15:08:08 15:09:25 11° 306° (NW) 15:10:33 437.445
ITAMSAT 1 04 May 15:08:18 15:13:28 70° 257° (WSW) 15:18:40 435.822/435.867
GONETS M04 04 May 15:12:09 15:18:57 27° 79° (E) 15:26:03
PCSat 04 May 15:17:16 15:22:41 61° 48° (NE) 15:28:04 145.827
JAS-2 04 May 15:18:20 15:25:06 38° 62° (ENE) 15:31:26 435.910
HORYU 2 04 May 15:19:51 15:23:52 33° 65° (ENE) 15:27:55 437.375
KKS-1 04 May 15:29:50 15:33:04 20° 90° (E) 15:36:24 437.445
AO-7 04 May 15:34:27 15:42:25 56° 60° (ENE) 15:50:29 29.400- 29.500
SPROUT 04 May 15:49:10 15:51:09 13° 304° (NW) 15:53:00 437.525
RS-15 04 May 15:54:00 16:04:54 65° 323° (NW) 16:16:13 29.354- 29.394
Oscar 19 04 May 15:54:57 15:57:04 12° 278° (W) 15:58:55 437.125/150
STARS 04 May 15:59:50 16:03:28 24° 92° (E) 16:07:09 437.465
VERMONT LUNAR 04 May 16:00:50 16:02:42 14° 183° (S) 16:04:34 437.305
ISS 04 May 16:03:36 16:05:36 15° 219° (SW) 16:07:33 145.825
SO-50 04 May 16:11:44 16:15:38 23° 21° (NNE) 16:19:36 436.795
ITUPSAT 1 04 May 16:15:20 16:19:52 43° 293° (WNW) 16:24:21 437.325
PHONESAT 2.4 04 May 16:34:27 16:36:39 16° 178° (S) 16:38:51 2401.200-2431.200
CUSAT 1 04 May 16:37:28 16:42:12 46° 91° (E) 16:48:26 437.405
Gurwin Techsat 1B 04 May 16:39:18 16:42:47 17° 274° (W) 16:46:03 435.225
BEESAT 04 May 16:39:59 16:44:02 28° 298° (WNW) 16:48:02 436.000
DANDE 04 May 16:41:14 16:45:29 37° 88° (E) 16:51:08 436.750
SWISSCUBE 04 May 16:44:22 16:48:14 24° 299° (WNW) 16:52:00 437.505
Cosmos 2504 04 May 16:45:42 16:50:24 15° 317° (NW) 16:54:36 435.465 / 435.565
Cosmos 2499 04 May 16:46:13 16:51:38 19° 77° (ENE) 16:57:13 435.465 / 435.565
ITAMSAT 1 04 May 16:52:21 16:54:04 11° 278° (W) 16:55:29 435.822/435.867
HORYU 2 04 May 16:56:20 17:00:29 35° 264° (W) 17:04:39 437.375
PCSat 04 May 17:01:11 17:05:48 28° 248° (WSW) 17:10:20 145.827
JAS-2 04 May 17:02:19 17:09:57 61° 260° (W) 17:16:57 435.910
KKS-1 04 May 17:05:40 17:10:07 58° 289° (WNW) 17:14:32 437.445
GONETS M04 04 May 17:06:04 17:14:55 83° 281° (WNW) 17:23:51
MOZHAYETS 4 04 May 17:09:10 17:12:08 17° 88° (E) 17:15:13
AO-7 04 May 17:27:40 17:35:31 44° 262° (W) 17:43:21 29.400- 29.500
CUTE-I 04 May 17:33:50 17:38:08 26° 59° (ENE) 17:42:31 437.470
STARS 04 May 17:35:52 17:40:09 46° 292° (WNW) 17:44:24 437.465
Cubesat XI-IV 04 May 17:46:10 17:50:47 32° 62° (ENE) 17:55:29 437.490
SO-50 04 May 17:52:07 17:57:05 65° 44° (NE) 18:02:01 436.795
RS-15 04 May 18:09:20 18:19:41 41° 354° (N) 18:30:28 29.354- 29.394
PHONESAT 2.4 04 May 18:12:31 18:14:02 12° 194° (SSW) 18:15:31 2401.200-2431.200
HO-68 04 May 18:12:59 18:15:14 12° 34° (NE) 18:17:44 435.675
CUSAT 1 04 May 18:20:25 18:25:12 35° 300° (WNW) 18:31:16 437.405
DANDE 04 May 18:24:12 18:28:44 38° 297° (WNW) 18:34:40 436.750
Cosmos 2499 04 May 18:34:58 18:43:40 76° 97° (E) 18:51:55 435.465 / 435.565
KKS-1 04 May 18:45:12 18:45:54 10° 308° (NW) 18:46:25 437.445
MOZHAYETS 4 04 May 18:45:19 18:49:54 67° 287° (WNW) 18:54:26
JAS-2 04 May 18:52:39 18:56:28 14° 281° (W) 18:59:43 435.910
YUBILEINY 04 May 18:54:14 18:57:39 13° 37° (NE) 19:01:29 435.215
BRITE-PL 04 May 18:57:22 18:58:49 12° 52° (NE) 19:00:28 437.365/2234.400
GONETS M04 04 May 19:06:24 19:13:25 25° 307° (NW) 19:20:15
CUTE-I 04 May 19:12:38 19:17:54 60° 259° (WSW) 19:23:11 437.470
CUBESAT XI-V 04 May 19:13:28 19:17:19 26° 92° (E) 19:21:14 437.345
Cubesat XI-IV 04 May 19:25:37 19:30:45 48° 261° (W) 19:35:55 437.490
GOMX 1 04 May 19:29:34 19:32:11 15° 55° (NE) 19:35:00 467.674
SO-50 04 May 19:33:11 19:37:20 26° 243° (WSW) 19:41:21 436.795
AAUSAT CUBESAT 2 04 May 19:54:00 19:54:05 10° 54° (NE) 19:54:21 437.432
HO-68 04 May 19:54:41 20:01:06 37° 57° (ENE) 20:07:37 435.675
SEEDS 04 May 19:59:12 20:01:38 15° 59° (ENE) 20:04:12 437.485
STRAND 1 04 May 20:09:32 20:14:19 39° 97° (E) 20:19:08 437.568
PRISM 04 May 20:13:01 20:17:01 49° 100° (E) 20:21:01 437.425
M-CUBED/EXP-1 PRIME 04 May 20:14:16 20:18:05 44° 104° (ESE) 20:21:37 437.505
CINEMA 3 04 May 20:22:50 20:25:54 18° 57° (ENE) 20:29:10 145.822/145.860
CANX-2 04 May 20:23:31 20:27:16 30° 66° (ENE) 20:31:04 2200.000
RS-15 04 May 20:24:04 20:35:02 52° 26° (NNE) 20:46:33 29.354- 29.394
MOZHAYETS 4 04 May 20:24:37 20:26:21 12° 306° (NW) 20:27:53
Cosmos 2499 04 May 20:30:06 20:37:42 32° 299° (WNW) 20:44:46 435.465 / 435.565
CUTE 1.7 + AOD 2 04 May 20:30:57 20:34:47 32° 66° (ENE) 20:38:39 437.475
BRITE-PL 04 May 20:32:05 20:36:25 66° 73° (ENE) 20:41:08 437.365/2234.400
O/OREOS (USA 219) 04 May 20:37:30 20:40:50 21° 103° (ESE) 20:44:16 437.305
Oscar 11 04 May 20:42:02 20:44:33 16° 58° (ENE) 20:47:14 145.826/435.025
AUBIESAT-1 04 May 20:46:47 20:50:46 87° 110° (ESE) 20:54:24 437.475
YUBILEINY 04 May 20:49:25 20:57:40 44° 66° (ENE) 21:05:54 435.215
CUBEBUG 2 04 May 20:50:10 20:53:10 18° 58° (ENE) 20:56:20 437.445
CUBESAT XI-V 04 May 20:50:34 20:54:59 45° 291° (WNW) 20:59:23 437.345
COMPASS 1 04 May 20:51:19 20:55:09 35° 67° (ENE) 20:59:02 437.405
DOVE 4 04 May 20:52:13 20:56:36 49° 69° (ENE) 21:01:20 437.250
Cosmos 2491 04 May 20:53:11 20:58:18 18° 73° (ENE) 21:03:52 435.465 / 435.565
UWE-3 04 May 20:54:50 20:57:36 16° 57° (ENE) 21:00:33 435.000/436.395/437.385
GOMX 1 04 May 21:05:06 21:09:36 88° 64° (ENE) 21:14:26 467.674
ZACube-1 04 May 21:06:27 21:09:15 17° 58° (ENE) 21:12:13 437.345
HUMSAT D 04 May 21:16:22 21:17:13 11° 54° (NE) 21:18:15 437.325/437.525
AAUSAT CUBESAT 2 04 May 21:24:46 21:28:57 64° 73° (ENE) 21:33:08 437.432
DELFI C3 04 May 21:29:12 21:32:40 28° 66° (ENE) 21:36:11 145.870
SEEDS 04 May 21:32:38 21:36:56 80° 257° (WSW) 21:41:14 437.485
DX 1 04 May 21:32:47 21:35:40 18° 59° (ENE) 21:38:40 434.975-435.025
HO-68 04 May 21:41:29 21:48:36 60° 258° (WSW) 21:55:44 435.675
VELOX 1 04 May 21:45:39 21:47:36 13° 55° (NE) 21:49:43 145.980
STRAND 1 04 May 21:48:52 21:53:31 36° 296° (WNW) 21:58:08 437.568
PRISM 04 May 21:49:04 21:52:13 21° 298° (WNW) 21:55:17 437.425
M-CUBED/EXP-1 PRIME 04 May 21:49:32 21:52:43 22° 305° (NW) 21:55:39 437.505
CINEMA 3 04 May 21:57:54 22:02:31 80° 257° (WSW) 22:07:24 145.822/145.860
CANX-2 04 May 21:59:09 22:03:09 35° 265° (W) 22:07:07 2200.000
UKube-1 04 May 22:00:07 22:03:46 28° 64° (ENE) 22:07:30 .
AISAT 04 May 22:06:17 22:09:24 20° 60° (ENE) 22:12:38 437.250
CUTE 1.7 + AOD 2 04 May 22:06:48 22:10:42 32° 265° (W) 22:14:36 437.475
FUNcube-1 04 May 22:10:56 22:15:19 55° 71° (ENE) 22:19:49 145.935
BRITE-PL 04 May 22:12:42 22:15:38 17° 275° (W) 22:18:33 437.365/2234.400
O/OREOS (USA 219) 04 May 22:15:24 22:19:55 58° 302° (WNW) 22:24:26 437.305
Oscar 11 04 May 22:15:51 22:20:13 81° 256° (WSW) 22:24:37 145.826/435.025
AUBIESAT-1 04 May 22:22:51 22:24:57 14° 311° (NW) 22:26:52 437.475
CUBEBUG 2 04 May 22:24:43 22:29:18 79° 257° (WSW) 22:34:03 437.445
COMPASS 1 04 May 22:27:10 22:30:54 29° 266° (W) 22:34:36 437.405
UWE-3 04 May 22:28:59 22:33:33 85° 257° (WSW) 22:38:14 435.000/436.395/437.385
DOVE 4 04 May 22:30:58 22:34:43 24° 270° (W) 22:38:35 437.250
RS-15 04 May 22:36:59 22:48:27 78° 234° (SW) 23:00:25 29.354- 29.394
Cosmos 2504 04 May 22:39:46 22:45:47 23° 54° (NE) 22:51:41 435.465 / 435.565
ZACube-1 04 May 22:40:33 22:45:04 81° 257° (WSW) 22:49:41 437.345
Cosmos 2491 04 May 22:45:03 22:53:43 72° 95° (E) 23:02:30 435.465 / 435.565
YUBILEINY 04 May 22:46:22 22:54:49 54° 270° (W) 23:03:08 435.215
GOMX 1 04 May 22:46:25 22:48:39 13° 278° (W) 22:50:44 467.674
HUMSAT D 04 May 22:47:55 22:52:11 64° 73° (ENE) 22:56:31 437.325/437.525
CUBEBUG 1 04 May 22:55:03 22:58:37 26° 63° (ENE) 23:02:15 437.445
AAUSAT CUBESAT 2 04 May 23:02:19 23:05:03 16° 272° (W) 23:07:38 437.432
50 SAT 04 May 23:03:46 23:07:45 58° 71° (ENE) 23:11:45 437.505
DELFI C3 04 May 23:03:59 23:07:44 34° 264° (W) 23:11:28 145.870
DX 1 04 May 23:07:10 23:11:29 68° 256° (WSW) 23:15:51 434.975-435.025
SEEDS 04 May 23:13:07 23:13:34 10° 277° (W) 23:13:46 437.485
VELOX 1 04 May 23:19:06 23:23:30 79° 74° (ENE) 23:27:57 145.980
ESTCUBE 1 04 May 23:20:02 23:24:21 49° 69° (ENE) 23:28:43 437.505/2401.250
TIGRISAT 04 May 23:20:20 23:23:59 23° 90° (E) 23:27:40 435.000
DUCHIFAT 1 04 May 23:25:07 23:26:40 12° 85° (E) 23:28:26 145.980
UNISAT 6 04 May 23:29:12 23:33:12 28° 92° (E) 23:37:10 437.425
HO-68 04 May 23:34:54 23:38:05 13° 281° (W) 23:40:50 435.675
SPROUT 04 May 23:35:39 23:38:49 21° 61° (ENE) 23:42:06 437.525
UKube-1 04 May 23:35:45 23:39:49 38° 262° (W) 23:43:53 .
POLYITAN 1 04 May 23:36:19 23:38:59 16° 88° (E) 23:41:47 437.675
CINEMA 3 04 May 23:38:55 23:40:42 12° 279° (W) 23:42:16 145.822/145.860
AISAT 04 May 23:41:14 23:45:36 63° 258° (WSW) 23:50:02 437.250
QB50P1 04 May 23:48:20 23:51:33 21° 90° (E) 23:54:51 145.935-145.965
FUNcube-1 04 May 23:48:33 23:52:01 21° 271° (W) 23:55:27 145.935
Oscar 11 04 May 23:56:10 23:57:14 11° 277° (W) 23:58:03 145.826/435.025
O/OREOS (USA 219) 04 May 23:58:05 00:00:23 13° 325° (NW) 00:02:34 437.305
AIST 1 04 May 23:59:47 00:03:41 36° 92° (E) 00:07:38
TISAT 1 05 May 00:00:25 00:03:57 27° 64° (ENE) 00:07:34 437.305
CUBEBUG 2 05 May 00:05:22 00:06:56 11° 278° (W) 00:08:16 437.445
BUGSAT 1 05 May 00:05:41 00:08:53 21° 91° (E) 00:12:10 437.445
UWE-3 05 May 00:09:00 00:10:56 12° 277° (W) 00:12:40 435.000/436.395/437.385
ANTELSAT 05 May 00:11:20 00:16:01 65° 101° (ESE) 00:20:35 437.575/2403.000
ITUPSAT 1 05 May 00:15:42 00:16:53 11° 51° (NE) 00:18:15 437.325
QB50P2 05 May 00:17:46 00:21:50 39° 97° (E) 00:25:53 145.880/145.840
ZACube-1 05 May 00:20:48 00:22:19 11° 278° (W) 00:23:36 437.345
HUMSAT D 05 May 00:25:35 00:28:26 17° 272° (W) 00:31:11 437.325/437.525
NANOSAT C BR1 05 May 00:28:20 00:32:31 47° 99° (E) 00:36:41 145.865
CUBEBUG 1 05 May 00:30:43 00:34:50 41° 262° (W) 00:38:58 437.445
Cosmos 2504 05 May 00:32:39 00:40:37 89° 83° (E) 00:48:00 435.465 / 435.565
POPSAT HIP 1 05 May 00:36:24 00:40:40 57° 101° (E) 00:44:56 437.405
BEESAT 05 May 00:37:44 00:40:37 17° 56° (NE) 00:43:39 436.000
50 SAT 05 May 00:40:17 00:42:56 16° 271° (W) 00:45:29 437.505
SWISSCUBE 05 May 00:41:39 00:44:51 19° 58° (ENE) 00:48:12 437.505
Cosmos 2491 05 May 00:43:39 00:51:29 34° 300° (WNW) 00:59:14 435.465 / 435.565
YUBILEINY 05 May 00:46:20 00:49:43 12° 292° (WNW) 00:52:31 435.215
RS-15 05 May 00:50:29 00:59:21 25° 257° (WSW) 01:07:58 29.354- 29.394
TIGRISAT 05 May 00:56:30 01:01:04 52° 290° (WNW) 01:05:32 435.000
ESTCUBE 1 05 May 00:57:54 01:01:30 23° 269° (W) 01:05:03 437.505/2401.250
VELOX 1 05 May 00:58:19 01:00:43 14° 274° (W) 01:02:57 145.980
DUCHIFAT 1 05 May 00:58:53 01:03:13 89° 280° (W) 01:07:31 145.980
BEESAT 3 05 May 01:04:39 01:08:21 34° 121° (ESE) 01:12:08 437.485
UNISAT 6 05 May 01:05:42 01:10:10 43° 292° (WNW) 01:14:30 437.425
SPROUT 05 May 01:10:23 01:14:36 55° 260° (W) 01:18:51 437.525
POLYITAN 1 05 May 01:11:05 01:15:24 66° 288° (WNW) 01:19:40 437.675
GONETS M04 05 May 01:14:00 01:19:59 20° 48° (NE) 01:26:13
BEESAT 2 05 May 01:19:35 01:23:26 39° 122° (ESE) 01:27:20 435.950
QB50P1 05 May 01:23:32 01:27:44 51° 290° (WNW) 01:31:55 145.935-145.965
CUSAT 1 05 May 01:26:01 01:31:27 20° 49° (NE) 01:37:22 437.405
DANDE 05 May 01:31:52 01:36:57 19° 48° (NE) 01:42:39 436.750
TISAT 1 05 May 01:35:41 01:39:37 38° 263° (W) 01:43:35 437.305
AIST 1 05 May 01:37:49 01:41:27 26° 292° (WNW) 01:45:05
BUGSAT 1 05 May 01:40:34 01:44:37 48° 290° (WNW) 01:48:42 437.445
AIST 2 05 May 01:47:31 01:51:06 27° 118° (ESE) 01:54:46 435.215
ANTELSAT 05 May 01:48:53 01:52:22 21° 301° (WNW) 01:55:43 437.575/2403.000
ITUPSAT 1 05 May 01:49:13 01:53:53 57° 70° (ENE) 01:58:36 437.325
QB50P2 05 May 01:53:55 01:57:37 28° 296° (WNW) 02:01:16 145.880/145.840
NANOSAT C BR1 05 May 02:04:40 02:08:07 23° 298° (WNW) 02:11:30 145.865
POPSAT HIP 1 05 May 02:12:59 02:16:13 20° 299° (WNW) 02:19:21 437.405
BEESAT 05 May 02:13:05 02:17:53 88° 248° (WSW) 02:22:42 436.000
SWISSCUBE 05 May 02:17:27 02:22:14 76° 256° (WSW) 02:27:02 437.505
Oscar 19 05 May 02:18:17 02:22:41 28° 92° (E) 02:27:08 437.125/150
Cosmos 2504 05 May 02:27:20 02:32:59 22° 283° (WNW) 02:38:09 435.465 / 435.565
KKS-1 05 May 02:32:37 02:36:34 33° 65° (ENE) 02:40:37 437.445
DUCHIFAT 1 05 May 02:36:11 02:38:26 14° 303° (WNW) 02:40:33 145.980
BEESAT 3 05 May 02:42:25 02:46:19 40° 320° (NW) 02:50:16 437.485
POLYITAN 1 05 May 02:49:21 02:50:33 11° 306° (NW) 02:51:34 437.675
BEESAT 2 05 May 02:57:42 03:01:35 37° 322° (NW) 03:05:29 435.950
STARS 05 May 03:01:24 03:05:30 40° 67° (ENE) 03:09:41 437.465
CUSAT 1 05 May 03:07:53 03:15:53 63° 71° (ENE) 03:24:06 437.405
Gurwin Techsat 1B 05 May 03:08:18 03:12:28 23° 90° (E) 03:16:44 435.225
GONETS M04 05 May 03:10:08 03:18:59 67° 74° (ENE) 03:27:46
DANDE 05 May 03:14:06 03:21:59 58° 70° (ENE) 03:30:28 436.750
ITAMSAT 1 05 May 03:16:16 03:20:43 29° 93° (E) 03:25:13 435.822/435.867
AIST 2 05 May 03:25:18 03:29:30 51° 318° (NW) 03:33:42 435.215
ITUPSAT 1 05 May 03:28:28 03:32:11 22° 270° (W) 03:35:49 437.325
AO-7 05 May 03:34:30 03:35:17 10° 76° (ENE) 03:36:46 29.400- 29.500
BEESAT 05 May 03:54:08 03:56:32 13° 275° (W) 03:58:44 436.000
Oscar 19 05 May 03:57:16 04:02:20 51° 292° (WNW) 04:07:20 437.125/150
SWISSCUBE 05 May 03:59:28 04:01:02 11° 277° (W) 04:02:20 437.505
JAS-2 05 May 04:08:54 04:12:03 15° 81° (E) 04:15:18 435.910
KKS-1 05 May 04:09:07 04:13:13 34° 264° (W) 04:17:18 437.445
MOZHAYETS 4 05 May 04:15:39 04:19:38 30° 65° (ENE) 04:23:40
Cosmos 2499 05 May 04:20:56 04:27:53 36° 64° (ENE) 04:34:30 435.465 / 435.565
BEESAT 3 05 May 04:22:55 04:25:22 15° 343° (NNW) 04:27:47 437.485
STARS 05 May 04:38:17 04:42:06 27° 266° (W) 04:45:54 437.465
BEESAT 2 05 May 04:38:26 04:40:48 14° 345° (NNW) 04:43:08 435.950
HORYU 2 05 May 04:42:18 04:46:18 31° 95° (E) 04:50:18 437.375
Gurwin Techsat 1B 05 May 04:47:39 04:52:56 62° 290° (WNW) 04:58:10 435.225
CUSAT 1 05 May 04:51:00 04:58:24 40° 271° (W) 05:05:49 437.405
ITAMSAT 1 05 May 04:55:28 05:00:29 49° 293° (WNW) 05:05:28 435.822/435.867
DANDE 05 May 04:57:37 05:05:12 44° 269° (W) 05:13:05 436.750
O/OREOS (USA 219) 05 May 05:02:30 05:05:37 18° 41° (NE) 05:08:47 437.305
AIST 2 05 May 05:06:05 05:09:01 17° 340° (NNW) 05:11:54 435.215
GONETS M04 05 May 05:07:37 05:15:22 35° 277° (W) 05:22:54
AO-7 05 May 05:22:33 05:30:35 50° 100° (E) 05:38:39 29.400- 29.500
M-CUBED/EXP-1 PRIME 05 May 05:32:46 05:36:31 24° 56° (NE) 05:40:13 437.505
PRISM 05 May 05:36:02 05:37:08 11° 55° (NE) 05:38:25 437.425
Oscar 19 05 May 05:39:11 05:40:39 11° 312° (NW) 05:41:53 437.125/150
JAS-2 05 May 05:52:21 05:58:28 86° 105° (ESE) 06:03:54 435.910
MOZHAYETS 4 05 May 05:52:22 05:56:46 41° 263° (W) 06:01:08
STRAND 1 05 May 05:53:37 05:56:54 18° 55° (NE) 06:00:20 437.568
BEESAT 3 05 May 06:03:11 06:04:59 12° 7° (N) 06:06:46 437.485
AUBIESAT-1 05 May 06:04:13 06:08:33 37° 61° (ENE) 06:12:44 437.475
PCSat 05 May 06:05:53 06:09:21 18° 107° (ESE) 06:13:01 145.827
Cosmos 2499 05 May 06:14:04 06:21:28 55° 268° (W) 06:28:22 435.465 / 435.565
BEESAT 2 05 May 06:18:36 06:20:32 13° 9° (N) 06:22:29 435.950
HORYU 2 05 May 06:18:52 06:23:01 36° 294° (WNW) 06:27:05 437.375
CUBESAT XI-V 05 May 06:21:37 06:25:58 44° 68° (ENE) 06:30:21 437.345
Gurwin Techsat 1B 05 May 06:29:27 06:32:00 13° 310° (NW) 06:34:21 435.225
ITAMSAT 1 05 May 06:37:47 06:38:56 11° 312° (NW) 06:39:51 435.822/435.867
O/OREOS (USA 219) 05 May 06:41:11 06:45:43 87° 243° (WSW) 06:50:11 437.305
DANDE 05 May 06:45:06 06:46:52 11° 288° (WNW) 06:48:02 436.750
AIST 2 05 May 06:47:11 06:49:11 13° 4° (N) 06:51:12 435.215
Cosmos 2491 05 May 06:53:30 06:57:42 14° 39° (NE) 07:02:18 435.465 / 435.565
M-CUBED/EXP-1 PRIME 05 May 07:06:20 07:11:05 61° 253° (WSW) 07:15:40 437.505
PRISM 05 May 07:07:48 07:11:55 73° 73° (ENE) 07:16:03 437.425
AO-7 05 May 07:15:32 07:23:30 51° 302° (WNW) 07:31:25 29.400- 29.500
CUTE-I 05 May 07:24:34 07:29:29 37° 96° (E) 07:34:26 437.470
STRAND 1 05 May 07:30:24 07:35:31 89° 264° (W) 07:40:40 437.568
Cubesat XI-IV 05 May 07:37:25 07:42:34 47° 99° (E) 07:47:43 437.490
JAS-2 05 May 07:38:22 07:42:48 21° 308° (NW) 07:46:47 435.910
AUBIESAT-1 05 May 07:38:57 07:43:19 35° 258° (WSW) 07:47:31 437.475
BEESAT 3 05 May 07:40:56 07:44:21 24° 30° (NNE) 07:47:45 437.485
PCSat 05 May 07:46:42 07:52:08 90° 275° (W) 07:57:37 145.827
BEESAT 2 05 May 07:56:24 07:59:57 26° 32° (NNE) 08:03:29 435.950
CUBESAT XI-V 05 May 07:59:42 08:03:36 26° 268° (W) 08:07:28 437.345
Cosmos 2499 05 May 08:10:49 08:12:51 11° 291° (WNW) 08:14:24 435.465 / 435.565
O/OREOS (USA 219) 05 May 08:22:37 08:24:28 12° 261° (W) 08:26:06 437.305
AIST 2 05 May 08:25:50 08:29:14 22° 27° (NNE) 08:32:38 435.215
BRITE-PL 05 May 08:31:40 08:35:21 19° 87° (E) 08:39:19 437.365/2234.400
ISS 05 May 08:45:42 08:46:58 12° 138° (SE) 08:48:19 145.825
PRISM 05 May 08:45:45 08:47:57 14° 272° (W) 08:50:00 437.425
DOVE 4 05 May 08:47:54 08:49:41 12° 81° (E) 08:51:46 437.250
Cosmos 2491 05 May 08:49:03 08:57:33 48° 68° (ENE) 09:06:03 435.465 / 435.565
GOMX 1 05 May 09:01:48 09:05:56 23° 89° (E) 09:10:15 467.674
HO-68 05 May 09:04:15 09:09:29 22° 87° (E) 09:14:54 435.675
CUTE-I 05 May 09:04:40 09:09:38 40° 295° (WNW) 09:14:34 437.470
AO-7 05 May 09:09:22 09:14:34 18° 325° (NW) 09:19:33 29.400- 29.500
STRAND 1 05 May 09:12:41 09:15:34 15° 275° (W) 09:18:14 437.568
SEEDS 05 May 09:13:45 09:15:35 13° 85° (E) 09:17:34 437.485
Cubesat XI-IV 05 May 09:17:50 09:22:33 32° 298° (WNW) 09:27:13 437.490
BEESAT 3 05 May 09:18:40 09:22:48 75° 231° (SW) 09:26:51 437.485
PCSat 05 May 09:31:43 09:36:17 26° 329° (NNW) 09:40:50 145.827
BEESAT 2 05 May 09:34:17 09:38:24 65° 233° (SW) 09:42:27 435.950
CANX-2 05 May 09:39:21 09:43:03 29° 93° (E) 09:46:47 2200.000
ANTELSAT 05 May 09:40:18 09:43:20 18° 58° (ENE) 09:46:30 437.575/2403.000
CUTE 1.7 + AOD 2 05 May 09:46:44 09:50:32 31° 94° (E) 09:54:20 437.475
CINEMA 3 05 May 09:48:22 09:52:05 21° 88° (E) 09:55:53 145.822/145.860
SO-50 05 May 09:51:40 09:55:53 34° 119° (ESE) 10:00:16 436.795
NANOSAT C BR1 05 May 09:53:41 09:54:41 11° 54° (NE) 09:55:52 145.865
YUBILEINY 05 May 09:57:05 10:05:01 41° 86° (E) 10:13:02 435.215
Oscar 11 05 May 09:59:41 10:01:48 14° 86° (E) 10:04:05 145.826/435.025
POPSAT HIP 1 05 May 10:01:06 10:02:54 13° 56° (NE) 10:04:52 437.405
AIST 1 05 May 10:02:01 10:04:52 17° 63° (ENE) 10:07:50
AIST 2 05 May 10:04:07 10:08:25 88° 49° (NE) 10:12:37 435.215
COMPASS 1 05 May 10:05:11 10:08:58 32° 95° (E) 10:12:45 437.405
BRITE-PL 05 May 10:09:07 10:14:29 82° 286° (WNW) 10:20:08 437.365/2234.400
CUBEBUG 2 05 May 10:11:48 10:14:59 18° 87° (E) 10:18:17 437.445
UWE-3 05 May 10:15:11 10:17:57 16° 86° (E) 10:20:51 435.000/436.395/437.385
ISS 05 May 10:19:36 10:22:45 48° 156° (SSE) 10:25:55 145.825
DUCHIFAT 1 05 May 10:21:56 10:24:49 19° 60° (ENE) 10:27:50 145.980
DOVE 4 05 May 10:23:12 10:28:28 69° 101° (E) 10:33:47 437.250
TIGRISAT 05 May 10:23:34 10:27:48 36° 66° (ENE) 10:32:10 435.000
ZACube-1 05 May 10:25:29 10:28:11 16° 86° (E) 10:31:01 437.345
